Tracking 32991 objects as of 22-Jan-2026
HD Live streaming from Space Station
objects crossing your sky now

TITAN 3A (TRUSS)

Track TITAN 3A (TRUSS) now!
10-day predictions
TITAN 3A (TRUSS) is classified as:


NORAD ID: 1001
Int'l Code: 1965-008A
Perigee: 2,770.2 km
Apogee: 2,802.4 km
Inclination: 32.1 °
Period: 145.3 minutes
Semi major axis: 9157 km
RCS: 10.9612 m2 (large)
Launch date: February 11, 1965
Source: United States (US)
Launch site: AIR FORCE EASTERN TEST RANGE (AFETR)
Your satellite tracking list
Your tracking list is empty




NASA's NSSDC Master Catalog

Two Line Element Set (TLE):
1  1001U 65008A   26022.27999352 -.00000001  00000-0 -12376-2 0  9993
2  1001  32.1463  95.2586 0017563  93.8058 266.4448  9.90722148207008
Source of the keplerian elements: AFSPC